loading
DOY 175 | 2024-06-23T18:41:11Z

THOR ABLESTAR DEB, 538

Orbit data source: Space-Track

THOR ABLESTAR DEB, 538 is space debris in LEO originally from a launch on Thu, 29 Jun 1961 UTC launched from the Air Force Eastern Test Range (AFETR). Debris objects in space refer to the collection of defunct objects orbiting the Earth. Examples of debris include non-operational satellites, rocket bodies, and fragments generated from explosions, collisions, or faulty payload assembly.

Loading next visibility...
Loading greatness...
THOR ABLESTAR DEB details
NORAD ID538
COSPAR ID
1961-015FX
Orbit
LEO
Last TLE update22 hours ago
Origin
Flag of USUSAF SSD (US)
ManufacturerUnknown
BusUnknown
MotorUnknown
MassWet unknown, Dry mass unknown
Launch date (UTC)
1961-06-29 (63 years ago)
Launch vehicleUnknown
Launch site
Air Force Eastern Test Range (AFETR)
Object type
Payload
Rocket body
Debris
Radar Cross SectionSmall (<0.1 m²)
Predictive object data (real-time)
Latitude-23.76267°
Longitude34.41887°
Altitude722.538 km
Speed7.493 km/s
Apparent Right ascension17h 10m 14s
Apparent Declination-31° 32' 19"
Sunlit
Object is in full shadow
Predictive observer data (real-time)
Local Sidereal Time05:50:24
Azimuth47.256° ENE
Elevation-78.327°
Doppler factor1
Orbital elements
Apogee720.163 km
Perigee705.041 km
Semi-major axis7,090.739 km
Eccentricity0.0010663
Inclination67.8094°
RAAN62.1467°
Arg. of periapsis296.7438°
True anomaly63.36819°
Mean anomaly63.259°
Mean motion3.63501 °/min
BSTAR0.0011052
Period99.04 mins
Definitive object data (Epoch: 2024-06-22T20:16:22.527Z)
Latitude0.00003°
Longitude-153.44936°
Altitude713.192 km
Speed7.501 km/s
True Right ascension04h 08m 35s
True Declination0° 00' 00"
Sunlit
Object was in daylight at TLE epoch
TLE from 22 hours ago
0 THOR ABLESTAR DEB
1 00538U 61015FX  24174.84470518  .00004536  00000-0  11052-2 0  9993
2 00538  67.8094  62.1467 0010663 296.7438  63.2590 14.53459111257837
Epoch: 2024-06-22T20:16Z
No data available

THOR ABLESTAR DEB Visibility forecast

Observer location: 39.9160978°, -105.1181434, 0m alt.

THOR ABLESTAR DEB is not visible in the next 10 days
Span
Click to sort rows by Start time (UTC) header in descending order
Start Az.
Max El. time (UTC)
Max El. Az.
Max El.
End time (UTC)
End Az.